Overview Statistics Trail Chart Weather Telemetry Raw packets
 

This is the latest recevied weather packets stored in our database for station/object WD7OO. If no packets are shown the sender has not sent any weather packets the latest 10 day(s).

<< 22 23 24 25 26 27 28 >>
Time Temp. Humidity Pressure Rain* Wind** Luminosity Snow
1788474752 28.89° C 71% 1014.3 hPa 0 mm - 66 W/m² -
1788474447 29.44° C 71% 1014.3 hPa 0 mm - 85 W/m² -
1788474146 29.44° C 70% 1014.6 hPa 0 mm - 188 W/m² -
1788473841 29.44° C 71% 1014.6 hPa 0 mm - 189 W/m² -
1788473540 30° C 71% 1014.5 hPa 0 mm - 210 W/m² -
1788473239 30° C 69% 1014.7 hPa 0 mm - 161 W/m² -
1788472934 30° C 70% 1014.6 hPa 0 mm - 279 W/m² -
1788472632 28.89° C 70% 1014.6 hPa 0 mm - 261 W/m² -
1788472328 29.44° C 71% 1014.8 hPa 0 mm - 104 W/m² -
1788472026 29.44° C 70% 1014.6 hPa 0 mm - 174 W/m² -
1788471722 30° C 69% 1015.2 hPa 0 mm - 253 W/m² -
1788471416 30° C 68% 1015.1 hPa 0 mm - 289 W/m² -
1788471113 30° C 68% 1014.8 hPa 0 mm - 305 W/m² -
1788470808 30° C 69% 1015.3 hPa 0 mm - 314 W/m² -
1788470504 30.56° C 65% 1015.2 hPa 0 mm - 330 W/m² -
1788470215 30° C 69% 1015.1 hPa 0 mm - 356 W/m² -
1788469895 30° C 66% 1015.4 hPa 0 mm - 349 W/m² -
1788469590 30° C 66% 1015.3 hPa 0 mm - 355 W/m² -
1788469286 30.56° C 66% 1015.5 hPa 0 mm - 375 W/m² -
1788468985 30.56° C 67% 1015.5 hPa 0 mm - 371 W/m² -
1788468679 30.56° C 66% 1015.7 hPa 0 mm - 404 W/m² -
1788468375 30.56° C 65% 1015.4 hPa 0 mm - 413 W/m² -
1788468070 31.11° C 64% 1015.2 hPa 0 mm - 433 W/m² -
1788467766 30.56° C 62% 1015.4 hPa 0 mm - 451 W/m² -
1788467460 30.56° C 63% 1015.3 hPa 0 mm - 463 W/m² -

* Rain latest hour (hover to see other rain measurements)
** Current wind speed in m/s (hover to see current wind gust speed)